Regional Weather Roundup
Issued by NWS

Home | Current Version | Previous Version | Text Only | Print | Product List | Glossary On
Versions: 1 2 3 4 5 6 7 8 9 10 11 12 13 14 15 16 17 18 19 20 21 22 23 24 25 26 27 28
000
ASUS45 KSLC 240210
RWRUT

UTAH REGIONAL WEATHER ROUNDUP
NATIONAL WEATHER SERVICE SALT LAKE CITY UT
800 PM MDT WED AUG 23 2017

UTZ001>011-023>025-240300-

NORTHERN UTAH

CITY           SKY/WX    TMP DP  RH WIND       PRES   REMARKS
BRIGHAM CITY   PTCLDY    79  42  26 NW10      30.04S
HILL AFB       PTCLDY    83  40  21 CALM      30.05F
LOGAN          MOCLDY    69  52  54 N10       30.07S
OGDEN          PTCLDY    84  39  20 NE6       30.01F
SALT LAKE CITY PTCLDY    86  45  23 N7        30.00F
TOOELE VALLEY  CLEAR     79  45  29 N5        30.01S
WENDOVER       MOCLDY    81  47  30 NE6       30.01R
HEBER CITY     CLEAR     73  39  29 N9        30.10S
WEST JORDAN    PTCLDY    81  57  43 CALM      30.05S

$$

UTZ011>015-024>027-240300-

CENTRAL/NORTHEAST UTAH

CITY           SKY/WX    TMP DP  RH WIND       PRES   REMARKS
PROVO AIRPORT  CLEAR     77  58  51 NW13      30.03S
MOAB/CANYONLAN CLEAR     86  33  15 NW7       29.98S
DELTA          PTCLDY    82  30  15 SW3       30.02S
PRICE          MOCLDY    78  41  26 SW7       30.11S
RICHFIELD      CLEAR     81  36  19 NW5       30.08R
ROOSEVELT      PTCLDY    77  45  31 N7        30.10F
VERNAL         MOCLDY    74  43  32 N9        30.10S

$$

UTZ013>016-019>022-027-240300-

SOUTHERN UTAH

CITY           SKY/WX    TMP DP  RH WIND       PRES   REMARKS
BRYCE CANYON   CLEAR     68  37  32 W9        30.26S
CEDAR CITY     CLEAR     80  33  18 SW9       30.10S
MILFORD        PTCLDY    84  37  18 NW5       30.03F
ST GEORGE      CLEAR     95  41  15 W12       29.89S HX  91
HANKSVILLE     CLOUDY    82  45  26 SW10G38   30.02R
KANAB          CLEAR     81  36  19 W5        30.08R
BLANDING       PTCLDY    78  41  27 NE8       30.18S

$$

REGIONAL REPORTS     COLORADO/ARIZONA

CITY           SKY/WX    TMP DP  RH WIND       PRES   REMARKS
CRAIG, CO      PTCLDY    61  48  62 CALM      30.22S
GRAND JUNCTION CLEAR     83  30  14 N7        30.02S
RIFLE, CO      PTCLDY    80  43  26 S6        30.09S
MONTROSE, CO   PTCLDY    78  45  30 CALM      30.12S
CORTEZ, CO     CLOUDY    81  38  21 S6        30.11S
COLORADO CITY    N/A     86  37  17 W8        30.08S
PAGE, AZ       PTCLDY    91  39  16 CALM      29.96S
GRAND CANYON   MOCLDY    68  57  68 CALM      30.21S
KINGMAN, AZ    CLEAR     90  46  21 SW8       29.94S
FLAGSTAFF, AZ  MOCLDY    72  47  40 W3        30.25R

$$

REGIONAL REPORTS    NEVADA/IDAHO/WYOMING

CITY           SKY/WX    TMP DP  RH WIND       PRES   REMARKS
LAS VEGAS, NV  CLOUDY    94  40  15 W13G21    29.84F THUNDER HX  90
ELY, NY        MOCLDY    79  34  19 S13       30.13F
ELKO, NV       PTCLDY    81  33  17 NW12      30.05R
POCATELLO, ID  CLOUDY    68  51  54 E9        30.07F
BURLEY, ID     CLOUDY    69  51  52 VRB3      30.03F
FORT BRIDGER,    N/A     65  47  51 SW6       30.29R
EVANSTON, WY   MOCLDY    66  45  46 MISG      30.26R
ROCK SPRINGS,  MOCLDY    67  34  29 SW12      30.22F
KEMMERER, WY   RAIN      50  45  81 W21G28    30.32R

$$




USA.gov is the U.S. government's official web portal to all federal, state and local government web resources and services.